[[{"header":{"parameterUnit":"m.s-1","parameterCategory":1,"la1":30.2992,"la2":30.254,"lo1":-89.0895,"lo2":-89.0443,"dy":0.0025,"dx":0.0025,"nx":19,"ny":19,"refTime":"2026-05-21T09:00:00:Z","depth":0,"parameterNumber":2,"parameterNumberName":"U-component_of_WINDS"},"data":[0,0,0,-1.6929,-1.6931,-1.7031,-1.7032,-1.715,-1.7151,0,0,0,0,0,0,0,0,0,0,0,-1.6892,-1.6893,-1.6929,-1.6931,-1.7031,-1.7032,-1.715,-1.7151,0,0,0,0,0,0,0,0,0,0,0,-1.6892,-1.6893,-1.6893,-1.6931,-1.7031,-1.7032,-1.715,-1.7078,0,0,0,0,0,0,0,0,0,0,-1.6982,-1.6942,-1.6893,-1.6893,-1.6932,-1.7031,-1.7032,-1.7075,-1.7082,-1.71,0,-1.7113,0,-1.7134,-1.7158,-1.7159,0,0,0,-1.6936,-1.6935,-1.6968,-1.6894,-1.6933,-1.7031,-1.6988,-1.7079,-1.7088,-1.711,-1.7115,-1.712,-1.7136,-1.7159,-1.716,-1.7242,-1.7242,0,0,-1.6931,-1.6907,-1.6962,-1.6973,-1.6956,-1.6984,-1.6991,-1.7085,-1.7089,-1.7116,-1.7123,-1.7138,-1.716,-1.7161,-1.7241,-1.7242,0,0,0,-1.6911,-1.6903,-1.6934,-1.6968,-1.6987,-1.6987,-1.6994,-1.7085,-1.7097,-1.7124,-1.7139,-1.716,-1.7162,-1.7241,-1.7242,-1.7224,0,0,0,-1.6908,-1.6892,-1.6931,-1.6918,-1.6985,-1.7037,-1.6992,-1.709,-1.7101,-1.7139,-1.7161,-1.7163,-1.7241,-1.7241,-1.7224,-1.722,0,0,0,-1.6888,-1.6889,-1.6901,-1.6916,-1.6958,-1.7036,-1.7054,-1.7093,-1.711,-1.7159,-1.7163,-1.7241,-1.7241,-1.7224,-1.722,-1.7234,0,0,0,-1.686,-1.6885,-1.6901,-1.6935,-1.6957,-1.7024,-1.7053,-1.7105,-1.7144,-1.7161,-1.7241,-1.7242,-1.7224,-1.722,-1.7234,-1.724,-1.7241,0,0,-1.6879,-1.6887,-1.6909,-1.6925,-1.6983,-1.7011,-1.7066,-1.7126,-1.7153,-1.7211,-1.7213,-1.7224,-1.722,-1.7234,-1.7253,-1.7253,0,0,0,-1.6907,-1.6922,-1.6942,-1.6978,-1.7023,-1.7061,-1.7115,-1.7137,-1.7187,-1.7177,-1.7234,-1.7232,-1.7241,-1.7245,-1.7245,-1.7254,-1.7243,-1.7242,-1.7242,-1.6899,-1.6931,-1.6969,-1.7013,-1.7047,-1.7101,-1.7132,-1.7171,-1.7194,-1.7207,-1.7224,-1.7232,-1.7236,-1.7236,-1.7245,-1.7231,-1.7231,-1.7231,-1.723,-1.6929,-1.6956,-1.6985,-1.7032,-1.7065,-1.7106,-1.7158,-1.7173,-1.7216,-1.7222,-1.7231,-1.7234,-1.7235,-1.7245,-1.723,-1.723,-1.723,-1.723,-1.723,-1.6928,-1.6946,-1.6971,-1.7025,-1.7063,-1.7107,-1.7146,-1.7176,-1.7204,-1.7213,-1.7235,-1.7235,-1.7239,-1.7221,-1.7221,-1.7221,-1.7221,-1.7222,-1.7222,-1.6916,-1.6945,-1.6974,-1.7022,-1.7048,-1.7087,-1.714,-1.7167,-1.7205,-1.7223,-1.7224,-1.7245,-1.723,-1.7225,-1.7222,-1.7222,-1.7222,-1.7222,-1.7222,-1.6934,-1.6935,-1.6979,-1.7004,-1.7064,-1.7099,-1.7136,-1.7188,-1.7215,-1.7233,-1.7252,-1.7236,-1.7247,-1.7247,-1.7243,-1.7245,-1.7245,-1.7245,-1.7245,-1.6933,-1.6941,-1.6992,-1.7031,-1.7073,-1.711,-1.7159,-1.7201,-1.7244,-1.7262,-1.7266,-1.7264,-1.7263,-1.7274,-1.7274,-1.7271,-1.728,-1.728,-1.728,-1.6945,-1.6958,-1.6994,-1.7035,-1.7083,-1.7123,-1.717,-1.7215,-1.7264,-1.7282,-1.7277,-1.7276,-1.7272,-1.727,-1.7288,-1.7287,-1.7282,0,0]},{"header":{"parameterUnit":"m.s-1","parameterCategory":1,"la1":30.2992,"la2":30.254,"lo1":-89.0895,"lo2":-89.0443,"dy":0.0025,"dx":0.0025,"nx":19,"ny":19,"refTime":"2026-05-21T09:00:00:Z","depth":0,"parameterNumber":3,"parameterNumberName":"V-component_of_WINDS"},"data":[0,0,0,5.0257,5.0259,5.0302,5.0302,5.0387,5.0388,0,0,0,0,0,0,0,0,0,0,0,5.0264,5.0265,5.0257,5.0259,5.0302,5.0302,5.0387,5.0388,0,0,0,0,0,0,0,0,0,0,0,5.0264,5.0265,5.0267,5.0259,5.0302,5.0302,5.0387,5.0343,0,0,0,0,0,0,0,0,0,0,5.0296,5.0322,5.0265,5.0267,5.0259,5.0302,5.0302,5.0341,5.0346,5.0381,0,5.0419,0,5.0405,5.0396,5.0397,0,0,0,5.0244,5.0318,5.0312,5.0267,5.026,5.0302,5.0278,5.0343,5.0349,5.0389,5.0419,5.0422,5.0406,5.0397,5.0397,5.065,5.0652,0,0,5.0242,5.0283,5.0308,5.0317,5.0313,5.0277,5.028,5.0347,5.0383,5.042,5.0423,5.0408,5.0398,5.0399,5.0648,5.065,0,0,0,5.0245,5.0282,5.0273,5.0314,5.0319,5.0279,5.0282,5.038,5.0373,5.0424,5.0409,5.0398,5.04,5.0646,5.0649,5.078,0,0,0,5.0243,5.0283,5.0273,5.0298,5.0319,5.0351,5.0314,5.0369,5.0375,5.0408,5.0398,5.0401,5.0644,5.0647,5.0772,5.0836,0,0,0,5.0255,5.0284,5.0297,5.03,5.032,5.0348,5.0345,5.0369,5.0367,5.0397,5.0401,5.0642,5.0647,5.0765,5.0824,5.0914,0,0,0,5.0279,5.0415,5.03,5.0445,5.032,5.043,5.0345,5.0424,5.0465,5.0399,5.0644,5.0648,5.0763,5.0817,5.0906,5.0997,5.1038,0,0,5.0473,5.044,5.0522,5.042,5.0561,5.042,5.0579,5.0578,5.0544,5.0616,5.0622,5.0775,5.0823,5.0912,5.1256,5.129,0,0,0,5.0597,5.0656,5.0684,5.0726,5.0728,5.0734,5.0705,5.0704,5.0763,5.059,5.083,5.0858,5.0908,5.0949,5.0978,5.1018,5.0669,5.0669,5.0668,5.0931,5.0878,5.101,5.0962,5.1003,5.0969,5.0997,5.099,5.0926,5.0984,5.1005,5.1221,5.127,5.1291,5.1334,5.1048,5.1049,5.1049,5.105,5.121,5.1285,5.1195,5.129,5.1233,5.1312,5.1284,5.1236,5.1301,5.1201,5.1242,5.1138,5.133,5.1364,5.1059,5.1058,5.1056,5.1055,5.1055,5.1423,5.145,5.1446,5.1497,5.1543,5.1489,5.1554,5.15,5.145,5.1491,5.1507,5.1505,5.1495,5.1502,5.1503,5.1504,5.1504,5.1505,5.1505,5.1646,5.1637,5.1699,5.171,5.1728,5.1744,5.171,5.1726,5.1729,5.1685,5.1685,5.1615,5.1358,5.1295,5.1517,5.1515,5.1513,5.1512,5.1512,5.1949,5.1871,5.1967,5.1985,5.1992,5.204,5.1969,5.2005,5.201,5.2044,5.1964,5.1783,5.1745,5.1722,5.167,5.1975,5.1975,5.1975,5.1975,5.2129,5.2104,5.2188,5.2219,5.2243,5.2188,5.2297,5.2271,5.2232,5.2231,5.2179,5.2104,5.2083,5.2057,5.2027,5.1977,5.2354,5.2355,5.2355,5.2312,5.2286,5.239,5.2349,5.235,5.2352,5.2452,5.2491,5.243,5.2369,5.223,5.2214,5.2092,5.2055,5.1993,5.1947,5.1854,0,0]}]]